Time,TemperatureF,DewpointF,PressureIn,WindDirection,WindDirectionDegrees,WindSpeedMPH,WindSpeedGustMPH,Humidity,HourlyPrecipIn,Conditions,Clouds,dailyrainin,SolarRadiationWatts/m^2,SoftwareType,DateUTC
2013-04-26 00:03:00,54.9,45.7,30.05,East,99,4.0,8.0,71,0.00,,,0.00,0,WeatherTracker,2013-04-26 07:03:00,
2013-04-26 00:08:00,54.7,45.9,30.05,East,87,5.0,7.0,72,0.00,,,0.00,0,WeatherTracker,2013-04-26 07:08:00,
2013-04-26 00:13:00,54.5,45.7,30.05,ENE,72,3.0,9.0,72,0.00,,,0.00,0,WeatherTracker,2013-04-26 07:13:00,
2013-04-26 00:18:00,54.3,45.5,30.06,East,90,5.0,9.0,72,0.00,,,0.00,0,WeatherTracker,2013-04-26 07:18:00,
2013-04-26 00:23:00,54.1,45.6,30.06,East,83,0.0,10.0,73,0.00,,,0.00,0,WeatherTracker,2013-04-26 07:23:00,
2013-04-26 00:28:00,54.0,45.5,30.06,East,88,3.0,10.0,73,0.00,,,0.00,0,WeatherTracker,2013-04-26 07:28:00,
2013-04-26 00:33:00,53.7,45.6,30.06,East,79,4.0,7.0,74,0.00,,,0.00,0,WeatherTracker,2013-04-26 07:33:00,
2013-04-26 00:38:00,53.5,45.4,30.06,ENE,76,6.0,7.0,74,0.00,,,0.00,0,WeatherTracker,2013-04-26 07:38:00,
2013-04-26 00:43:00,53.2,45.5,30.06,East,85,3.0,8.0,75,0.00,,,0.00,0,WeatherTracker,2013-04-26 07:43:00,
2013-04-26 00:48:00,53.1,45.4,30.06,East,88,5.0,8.0,75,0.00,,,0.00,0,WeatherTracker,2013-04-26 07:48:00,
2013-04-26 00:53:00,53.0,45.3,30.06,East,86,2.0,7.0,75,0.00,,,0.00,0,WeatherTracker,2013-04-26 07:53:00,
2013-04-26 00:58:00,52.9,45.2,30.07,East,85,3.0,6.0,75,0.00,,,0.00,0,WeatherTracker,2013-04-26 07:58:00,
2013-04-26 01:03:00,52.8,45.1,30.07,ENE,73,4.0,6.0,75,0.00,,,0.00,0,WeatherTracker,2013-04-26 08:03:00,
2013-04-26 01:08:00,52.6,45.3,30.07,East,88,5.0,7.0,76,0.00,,,0.00,0,WeatherTracker,2013-04-26 08:08:00,
2013-04-26 01:13:00,52.5,45.2,30.07,East,86,0.0,7.0,76,0.00,,,0.00,0,WeatherTracker,2013-04-26 08:13:00,
2013-04-26 01:18:00,52.4,45.1,30.07,ENE,68,2.0,7.0,76,0.00,,,0.00,0,WeatherTracker,2013-04-26 08:18:00,
2013-04-26 01:24:00,52.2,45.2,30.07,ENE,74,0.0,7.0,77,0.00,,,0.00,0,WeatherTracker,2013-04-26 08:24:00,
2013-04-26 01:29:00,52.1,45.1,30.07,ENE,75,1.0,7.0,77,0.00,,,0.00,0,WeatherTracker,2013-04-26 08:29:00,
2013-04-26 01:34:00,52.1,45.1,30.07,ENE,67,5.0,6.0,77,0.00,,,0.00,0,WeatherTracker,2013-04-26 08:34:00,
2013-04-26 01:39:00,52.0,45.4,30.07,ENE,71,2.0,5.0,78,0.00,,,0.00,0,WeatherTracker,2013-04-26 08:39:00,
2013-04-26 01:44:00,51.9,45.3,30.07,East,80,3.0,6.0,78,0.00,,,0.00,0,WeatherTracker,2013-04-26 08:44:00,
2013-04-26 01:49:00,51.8,45.2,30.07,ENE,77,3.0,8.0,78,0.00,,,0.00,0,WeatherTracker,2013-04-26 08:49:00,
2013-04-26 01:54:00,51.7,45.1,30.08,ENE,73,0.0,8.0,78,0.00,,,0.00,0,WeatherTracker,2013-04-26 08:54:00,
2013-04-26 01:59:00,51.7,45.4,30.08,ENE,74,0.0,6.0,79,0.00,,,0.00,0,WeatherTracker,2013-04-26 08:59:00,
2013-04-26 02:04:00,51.7,45.4,30.08,ENE,74,3.0,5.0,79,0.00,,,0.00,0,WeatherTracker,2013-04-26 09:04:00,
2013-04-26 02:09:00,51.6,45.3,30.07,ENE,72,2.0,5.0,79,0.00,,,0.00,0,WeatherTracker,2013-04-26 09:09:00,
2013-04-26 02:14:00,51.4,45.1,30.08,ENE,72,0.0,5.0,79,0.00,,,0.00,0,WeatherTracker,2013-04-26 09:14:00,
2013-04-26 02:19:00,51.4,45.1,30.08,ENE,72,0.0,4.0,79,0.00,,,0.00,0,WeatherTracker,2013-04-26 09:19:00,
2013-04-26 02:24:00,51.3,45.0,30.08,ENE,72,0.0,3.0,79,0.00,,,0.00,0,WeatherTracker,2013-04-26 09:24:00,
2013-04-26 02:29:00,51.3,45.0,30.08,ENE,72,0.0,2.0,79,0.00,,,0.00,0,WeatherTracker,2013-04-26 09:29:00,
2013-04-26 02:35:00,51.3,45.3,30.08,ENE,72,0.0,0.0,80,0.00,,,0.00,0,WeatherTracker,2013-04-26 09:35:00,
2013-04-26 02:40:00,51.3,45.3,30.08,ENE,72,0.0,0.0,80,0.00,,,0.00,0,WeatherTracker,2013-04-26 09:40:00,
2013-04-26 02:45:00,51.3,45.3,30.08,ENE,72,0.0,0.0,80,0.00,,,0.00,0,WeatherTracker,2013-04-26 09:45:00,
2013-04-26 02:50:00,51.2,45.2,30.08,ENE,72,0.0,0.0,80,0.00,,,0.00,0,WeatherTracker,2013-04-26 09:50:00,
2013-04-26 02:55:00,51.2,45.2,30.08,ENE,71,0.0,2.0,80,0.00,,,0.00,0,WeatherTracker,2013-04-26 09:55:00,
2013-04-26 03:00:00,51.1,45.1,30.08,ENE,71,0.0,2.0,80,0.00,,,0.00,0,WeatherTracker,2013-04-26 10:00:00,
2013-04-26 03:05:00,51.0,45.0,30.08,ENE,71,0.0,1.0,80,0.00,,,0.00,0,WeatherTracker,2013-04-26 10:05:00,
2013-04-26 03:10:00,50.8,44.9,30.08,ENE,70,0.0,4.0,80,0.00,,,0.00,0,WeatherTracker,2013-04-26 10:10:00,
2013-04-26 03:15:00,50.8,45.2,30.09,ENE,70,0.0,4.0,81,0.00,,,0.00,0,WeatherTracker,2013-04-26 10:15:00,
2013-04-26 03:20:00,50.9,45.3,30.09,ENE,70,0.0,0.0,81,0.00,,,0.00,0,WeatherTracker,2013-04-26 10:20:00,
2013-04-26 03:25:00,50.9,45.0,30.09,ENE,70,0.0,0.0,80,0.00,,,0.00,0,WeatherTracker,2013-04-26 10:25:00,
2013-04-26 03:30:00,50.8,44.9,30.09,ENE,70,0.0,0.0,80,0.00,,,0.00,0,WeatherTracker,2013-04-26 10:30:00,
2013-04-26 03:35:00,50.8,45.2,30.09,ENE,70,0.0,0.0,81,0.00,,,0.00,0,WeatherTracker,2013-04-26 10:35:00,
2013-04-26 03:40:00,50.8,45.2,30.09,ENE,70,0.0,0.0,81,0.00,,,0.00,0,WeatherTracker,2013-04-26 10:40:00,
2013-04-26 03:45:00,50.7,45.1,30.09,ENE,70,0.0,1.0,81,0.00,,,0.00,0,WeatherTracker,2013-04-26 10:45:00,
2013-04-26 03:50:00,50.7,45.1,30.09,ENE,70,0.0,1.0,81,0.00,,,0.00,0,WeatherTracker,2013-04-26 10:50:00,
2013-04-26 03:55:00,50.7,45.1,30.10,ENE,70,0.0,0.0,81,0.00,,,0.00,0,WeatherTracker,2013-04-26 10:55:00,
2013-04-26 04:00:00,50.9,45.3,30.10,ENE,70,0.0,0.0,81,0.00,,,0.00,0,WeatherTracker,2013-04-26 11:00:00,
2013-04-26 04:06:00,51.0,45.4,30.10,ENE,70,0.0,0.0,81,0.00,,,0.00,0,WeatherTracker,2013-04-26 11:06:00,
2013-04-26 04:11:00,51.0,45.0,30.10,ENE,70,0.0,0.0,80,0.00,,,0.00,0,WeatherTracker,2013-04-26 11:11:00,
2013-04-26 04:16:00,51.0,45.0,30.10,ENE,70,0.0,0.0,80,0.00,,,0.00,0,WeatherTracker,2013-04-26 11:16:00,
2013-04-26 04:21:00,51.0,45.0,30.11,ENE,70,0.0,0.0,80,0.00,,,0.00,0,WeatherTracker,2013-04-26 11:21:00,
2013-04-26 04:26:00,50.9,45.0,30.11,ENE,70,0.0,0.0,80,0.00,,,0.00,0,WeatherTracker,2013-04-26 11:26:00,
2013-04-26 04:31:00,50.8,44.9,30.11,ENE,70,0.0,0.0,80,0.00,,,0.00,0,WeatherTracker,2013-04-26 11:31:00,
2013-04-26 04:36:00,50.8,44.9,30.11,ENE,70,0.0,0.0,80,0.00,,,0.00,0,WeatherTracker,2013-04-26 11:36:00,
2013-04-26 04:41:00,50.7,44.8,30.11,ENE,70,0.0,0.0,80,0.00,,,0.00,0,WeatherTracker,2013-04-26 11:41:00,
2013-04-26 04:46:00,50.7,44.8,30.11,ENE,70,0.0,0.0,80,0.00,,,0.00,0,WeatherTracker,2013-04-26 11:46:00,
2013-04-26 04:51:00,50.7,44.8,30.11,ENE,70,0.0,0.0,80,0.00,,,0.00,0,WeatherTracker,2013-04-26 11:51:00,
2013-04-26 04:56:00,50.6,44.7,30.11,ENE,70,0.0,0.0,80,0.00,,,0.00,0,WeatherTracker,2013-04-26 11:56:00,
2013-04-26 05:01:00,50.6,44.7,30.11,ENE,70,0.0,0.0,80,0.00,,,0.00,0,WeatherTracker,2013-04-26 12:01:00,
2013-04-26 05:06:00,50.4,44.8,30.11,ENE,70,0.0,0.0,81,0.00,,,0.00,0,WeatherTracker,2013-04-26 12:06:00,
2013-04-26 05:11:00,50.3,44.7,30.11,ENE,70,0.0,0.0,81,0.00,,,0.00,0,WeatherTracker,2013-04-26 12:11:00,
2013-04-26 05:16:00,50.3,44.7,30.11,ENE,70,0.0,2.0,81,0.00,,,0.00,0,WeatherTracker,2013-04-26 12:16:00,
2013-04-26 05:21:00,50.3,45.0,30.11,ENE,70,0.0,2.0,82,0.00,,,0.00,0,WeatherTracker,2013-04-26 12:21:00,
2013-04-26 05:26:00,50.2,44.9,30.11,ENE,70,0.0,0.0,82,0.00,,,0.00,0,WeatherTracker,2013-04-26 12:26:00,
2013-04-26 05:31:00,50.2,44.9,30.12,ENE,70,0.0,0.0,82,0.00,,,0.00,0,WeatherTracker,2013-04-26 12:31:00,
2013-04-26 05:36:00,50.1,44.8,30.12,ENE,70,0.0,0.0,82,0.00,,,0.00,0,WeatherTracker,2013-04-26 12:36:00,
2013-04-26 05:41:00,50.1,44.8,30.12,ENE,70,0.0,0.0,82,0.00,,,0.00,0,WeatherTracker,2013-04-26 12:41:00,
2013-04-26 05:46:00,50.0,44.7,30.12,ENE,70,0.0,0.0,82,0.00,,,0.00,0,WeatherTracker,2013-04-26 12:46:00,
2013-04-26 05:51:00,50.0,44.7,30.13,ENE,70,0.0,0.0,82,0.00,,,0.00,0,WeatherTracker,2013-04-26 12:51:00,
2013-04-26 05:56:00,49.9,44.6,30.13,ENE,70,0.0,0.0,82,0.00,,,0.00,0,WeatherTracker,2013-04-26 12:56:00,
2013-04-26 06:02:00,49.8,44.5,30.13,ENE,70,0.0,0.0,82,0.00,,,0.00,0,WeatherTracker,2013-04-26 13:02:00,
2013-04-26 06:06:00,49.7,44.7,30.13,ENE,70,0.0,0.0,83,0.00,,,0.00,0,WeatherTracker,2013-04-26 13:06:00,
2013-04-26 06:12:00,49.7,44.7,30.13,ENE,70,0.0,0.0,83,0.00,,,0.00,0,WeatherTracker,2013-04-26 13:12:00,
2013-04-26 06:17:00,49.6,44.7,30.14,ENE,70,0.0,0.0,83,0.00,,,0.00,5,WeatherTracker,2013-04-26 13:17:00,
2013-04-26 06:22:00,49.5,44.6,30.14,ENE,70,0.0,0.0,83,0.00,,,0.00,9,WeatherTracker,2013-04-26 13:22:00,
2013-04-26 06:27:00,49.5,44.6,30.14,ENE,70,0.0,0.0,83,0.00,,,0.00,12,WeatherTracker,2013-04-26 13:27:00,
2013-04-26 06:32:00,49.5,44.6,30.14,ENE,70,0.0,0.0,83,0.00,,,0.00,18,WeatherTracker,2013-04-26 13:32:00,
2013-04-26 06:37:00,49.5,44.6,30.14,ENE,70,0.0,0.0,83,0.00,,,0.00,21,WeatherTracker,2013-04-26 13:37:00,
2013-04-26 06:42:00,49.5,44.6,30.14,ENE,70,0.0,0.0,83,0.00,,,0.00,26,WeatherTracker,2013-04-26 13:42:00,
2013-04-26 06:47:00,49.6,44.7,30.15,ENE,70,0.0,1.0,83,0.00,,,0.00,33,WeatherTracker,2013-04-26 13:47:00,
2013-04-26 06:52:00,49.7,44.7,30.15,ENE,70,0.0,1.0,83,0.00,,,0.00,42,WeatherTracker,2013-04-26 13:52:00,
2013-04-26 06:57:00,50.0,45.0,30.15,ENE,69,0.0,0.0,83,0.00,,,0.00,56,WeatherTracker,2013-04-26 13:57:00,
2013-04-26 07:02:00,50.3,45.3,30.15,ENE,69,0.0,0.0,83,0.00,,,0.00,69,WeatherTracker,2013-04-26 14:02:00,
2013-04-26 07:07:00,50.7,45.7,30.16,ENE,69,0.0,0.0,83,0.00,,,0.00,83,WeatherTracker,2013-04-26 14:07:00,
2013-04-26 07:12:00,51.3,46.0,30.16,ENE,69,0.0,0.0,82,0.00,,,0.00,97,WeatherTracker,2013-04-26 14:12:00,
2013-04-26 07:17:00,51.8,46.2,30.16,ENE,67,0.0,0.0,81,0.00,,,0.00,113,WeatherTracker,2013-04-26 14:17:00,
2013-04-26 07:22:00,52.2,46.2,30.16,ENE,66,0.0,0.0,80,0.00,,,0.00,127,WeatherTracker,2013-04-26 14:22:00,
2013-04-26 07:27:00,52.4,46.4,30.16,ENE,65,0.0,0.0,80,0.00,,,0.00,142,WeatherTracker,2013-04-26 14:27:00,
2013-04-26 07:32:00,52.8,46.5,30.17,ENE,65,0.0,0.0,79,0.00,,,0.00,156,WeatherTracker,2013-04-26 14:32:00,
2013-04-26 07:37:00,53.2,46.9,30.17,ENE,65,0.0,0.0,79,0.00,,,0.00,174,WeatherTracker,2013-04-26 14:37:00,
2013-04-26 07:42:00,54.1,47.4,30.17,ENE,65,0.0,0.0,78,0.00,,,0.00,186,WeatherTracker,2013-04-26 14:42:00,
2013-04-26 07:47:00,54.9,47.5,30.18,ENE,65,0.0,0.0,76,0.00,,,0.00,204,WeatherTracker,2013-04-26 14:47:00,
2013-04-26 07:52:00,55.4,47.6,30.18,NE,55,0.0,3.0,75,0.00,,,0.00,220,WeatherTracker,2013-04-26 14:52:00,
2013-04-26 07:57:00,55.5,47.3,30.18,NE,51,0.0,3.0,74,0.00,,,0.00,237,WeatherTracker,2013-04-26 14:57:00,
2013-04-26 08:02:00,55.9,47.7,30.18,NE,45,1.0,4.0,74,0.00,,,0.00,251,WeatherTracker,2013-04-26 15:02:00,
2013-04-26 08:07:00,56.6,48.0,30.18,NE,45,0.0,4.0,73,0.00,,,0.00,269,WeatherTracker,2013-04-26 15:07:00,
2013-04-26 08:13:00,57.0,47.7,30.18,NE,45,0.0,4.0,71,0.00,,,0.00,285,WeatherTracker,2013-04-26 15:13:00,
2013-04-26 08:18:00,57.3,48.0,30.18,NE,45,0.0,0.0,71,0.00,,,0.00,301,WeatherTracker,2013-04-26 15:18:00,
2013-04-26 08:23:00,57.2,47.9,30.18,NE,45,0.0,0.0,71,0.00,,,0.00,318,WeatherTracker,2013-04-26 15:23:00,
2013-04-26 08:28:00,57.0,47.7,30.18,NE,44,0.0,0.0,71,0.00,,,0.00,334,WeatherTracker,2013-04-26 15:28:00,
2013-04-26 08:33:00,57.4,48.1,30.19,NE,44,0.0,0.0,71,0.00,,,0.00,352,WeatherTracker,2013-04-26 15:33:00,
2013-04-26 08:38:00,58.1,48.4,30.19,NE,44,1.0,0.0,70,0.00,,,0.00,369,WeatherTracker,2013-04-26 15:38:00,
2013-04-26 08:43:00,58.6,48.5,30.19,NE,44,0.0,3.0,69,0.00,,,0.00,385,WeatherTracker,2013-04-26 15:43:00,
2013-04-26 08:48:00,59.4,48.8,30.19,NE,44,0.0,3.0,68,0.00,,,0.00,401,WeatherTracker,2013-04-26 15:48:00,
2013-04-26 08:53:00,60.2,48.8,30.19,NE,44,0.0,0.0,66,0.00,,,0.00,420,WeatherTracker,2013-04-26 15:53:00,
2013-04-26 08:58:00,60.5,48.7,30.19,NE,44,0.0,2.0,65,0.00,,,0.00,436,WeatherTracker,2013-04-26 15:58:00,
2013-04-26 09:03:00,60.6,48.8,30.19,NE,44,0.0,2.0,65,0.00,,,0.00,450,WeatherTracker,2013-04-26 16:03:00,
2013-04-26 09:08:00,61.2,48.9,30.19,NE,44,2.0,0.0,64,0.00,,,0.00,466,WeatherTracker,2013-04-26 16:08:00,
2013-04-26 09:13:00,62.1,49.4,30.19,NE,44,1.0,3.0,63,0.00,,,0.00,482,WeatherTracker,2013-04-26 16:13:00,
2013-04-26 09:18:00,62.6,49.0,30.20,NE,44,0.0,4.0,61,0.00,,,0.00,499,WeatherTracker,2013-04-26 16:18:00,
2013-04-26 09:23:00,62.9,49.2,30.19,NE,44,3.0,4.0,61,0.00,,,0.00,515,WeatherTracker,2013-04-26 16:23:00,
2013-04-26 09:28:00,63.4,49.3,30.19,NE,44,0.0,4.0,60,0.00,,,0.00,531,WeatherTracker,2013-04-26 16:28:00,
2013-04-26 09:33:00,64.0,49.4,30.19,NE,44,0.0,3.0,59,0.00,,,0.00,545,WeatherTracker,2013-04-26 16:33:00,
2013-04-26 09:38:00,63.9,49.7,30.19,NE,44,0.0,5.0,60,0.00,,,0.00,561,WeatherTracker,2013-04-26 16:38:00,
2013-04-26 09:43:00,64.3,49.7,30.19,NE,44,0.0,5.0,59,0.00,,,0.00,577,WeatherTracker,2013-04-26 16:43:00,
2013-04-26 09:48:00,64.7,49.6,30.19,NE,46,0.0,3.0,58,0.00,,,0.00,589,WeatherTracker,2013-04-26 16:48:00,
2013-04-26 09:53:00,65.3,50.1,30.20,NE,46,0.0,4.0,58,0.00,,,0.00,605,WeatherTracker,2013-04-26 16:53:00,
2013-04-26 09:58:00,65.6,49.9,30.20,NE,44,0.0,4.0,57,0.00,,,0.00,619,WeatherTracker,2013-04-26 16:58:00,
2013-04-26 10:03:00,66.1,50.4,30.20,NE,51,4.0,4.0,57,0.00,,,0.00,631,WeatherTracker,2013-04-26 17:03:00,
2013-04-26 10:08:00,66.9,50.7,30.20,ENE,57,4.0,5.0,56,0.00,,,0.00,645,WeatherTracker,2013-04-26 17:08:00,
2013-04-26 10:13:00,66.8,50.1,30.20,ENE,61,0.0,5.0,55,0.00,,,0.00,657,WeatherTracker,2013-04-26 17:13:00,
2013-04-26 10:18:00,67.0,50.3,30.20,East,80,2.0,5.0,55,0.00,,,0.00,671,WeatherTracker,2013-04-26 17:18:00,
2013-04-26 10:23:00,67.3,50.6,30.20,East,80,0.0,6.0,55,0.00,,,0.00,684,WeatherTracker,2013-04-26 17:23:00,
2013-04-26 10:28:00,67.8,50.5,30.20,East,81,0.0,6.0,54,0.00,,,0.00,696,WeatherTracker,2013-04-26 17:28:00,
2013-04-26 10:33:00,68.2,50.4,30.20,East,88,3.0,4.0,53,0.00,,,0.00,705,WeatherTracker,2013-04-26 17:33:00,
2013-04-26 10:38:00,67.6,50.4,30.20,East,90,0.0,5.0,54,0.00,,,0.00,719,WeatherTracker,2013-04-26 17:38:00,
2013-04-26 10:43:00,67.8,50.5,30.20,East,100,5.0,5.0,54,0.00,,,0.00,733,WeatherTracker,2013-04-26 17:43:00,
2013-04-26 10:48:00,67.9,50.6,30.20,ESE,102,5.0,6.0,54,0.00,,,0.00,744,WeatherTracker,2013-04-26 17:48:00,
2013-04-26 10:53:00,68.3,50.5,30.20,ESE,102,0.0,7.0,53,0.00,,,0.00,754,WeatherTracker,2013-04-26 17:53:00,
2013-04-26 10:58:00,68.8,50.4,30.20,ESE,102,0.0,7.0,52,0.00,,,0.00,766,WeatherTracker,2013-04-26 17:58:00,
2013-04-26 11:04:00,68.9,50.5,30.20,ESE,103,0.0,5.0,52,0.00,,,0.00,777,WeatherTracker,2013-04-26 18:04:00,
2013-04-26 11:09:00,68.8,50.4,30.20,ESE,103,0.0,1.0,52,0.00,,,0.00,788,WeatherTracker,2013-04-26 18:09:00,
2013-04-26 11:14:00,69.0,50.1,30.19,ESE,103,0.0,0.0,51,0.00,,,0.00,793,WeatherTracker,2013-04-26 18:14:00,
2013-04-26 11:19:00,70.2,51.2,30.20,East,101,0.0,0.0,51,0.00,,,0.00,803,WeatherTracker,2013-04-26 18:19:00,
2013-04-26 11:24:00,71.2,51.0,30.19,East,96,0.0,5.0,49,0.00,,,0.00,812,WeatherTracker,2013-04-26 18:24:00,
2013-04-26 11:29:00,71.9,51.7,30.19,East,89,4.0,5.0,49,0.00,,,0.00,821,WeatherTracker,2013-04-26 18:29:00,
2013-04-26 11:34:00,72.5,51.1,30.19,East,95,2.0,4.0,47,0.00,,,0.00,831,WeatherTracker,2013-04-26 18:34:00,
2013-04-26 11:39:00,73.3,51.3,30.19,East,96,0.0,6.0,46,0.00,,,0.00,840,WeatherTracker,2013-04-26 18:39:00,
2013-04-26 11:44:00,73.8,51.1,30.19,East,95,0.0,6.0,45,0.00,,,0.00,846,WeatherTracker,2013-04-26 18:44:00,
2013-04-26 11:49:00,74.4,50.4,30.19,East,99,6.0,6.0,43,0.00,,,0.00,858,WeatherTracker,2013-04-26 18:49:00,
2013-04-26 11:54:00,74.9,50.9,30.18,ESE,109,0.0,7.0,43,0.00,,,0.00,867,WeatherTracker,2013-04-26 18:54:00,
2013-04-26 11:59:00,75.5,50.8,30.18,East,100,4.0,8.0,42,0.00,,,0.00,870,WeatherTracker,2013-04-26 18:59:00,
2013-04-26 12:04:00,75.7,51.0,30.18,East,90,0.0,8.0,42,0.00,,,0.00,874,WeatherTracker,2013-04-26 19:04:00,
2013-04-26 12:09:00,76.1,52.0,30.18,East,92,1.0,6.0,43,0.00,,,0.00,882,WeatherTracker,2013-04-26 19:09:00,
2013-04-26 12:14:00,76.4,51.6,30.18,East,90,5.0,6.0,42,0.00,,,0.00,882,WeatherTracker,2013-04-26 19:14:00,
2013-04-26 12:19:00,76.7,51.9,30.17,East,87,0.0,7.0,42,0.00,,,0.00,888,WeatherTracker,2013-04-26 19:19:00,
2013-04-26 12:24:00,77.0,52.1,30.17,East,96,0.0,7.0,42,0.00,,,0.00,891,WeatherTracker,2013-04-26 19:24:00,
2013-04-26 12:29:00,77.1,52.2,30.17,ESE,105,4.0,7.0,42,0.00,,,0.00,896,WeatherTracker,2013-04-26 19:29:00,
2013-04-26 12:34:00,77.3,51.7,30.17,ESE,103,1.0,7.0,41,0.00,,,0.00,900,WeatherTracker,2013-04-26 19:34:00,
2013-04-26 12:39:00,77.5,51.9,30.17,South,179,5.0,7.0,41,0.00,,,0.00,905,WeatherTracker,2013-04-26 19:39:00,
2013-04-26 12:45:00,77.9,52.3,30.17,SE,132,0.0,7.0,41,0.00,,,0.00,907,WeatherTracker,2013-04-26 19:45:00,
2013-04-26 12:50:00,78.3,52.6,30.16,SE,132,0.0,7.0,41,0.00,,,0.00,909,WeatherTracker,2013-04-26 19:50:00,
2013-04-26 12:55:00,78.9,51.8,30.16,ESE,123,1.0,5.0,39,0.00,,,0.00,911,WeatherTracker,2013-04-26 19:55:00,
2013-04-26 13:00:00,79.4,52.3,30.16,SE,127,4.0,5.0,39,0.00,,,0.00,914,WeatherTracker,2013-04-26 20:00:00,
2013-04-26 13:05:00,79.7,51.1,30.16,SE,144,0.0,5.0,37,0.00,,,0.00,914,WeatherTracker,2013-04-26 20:05:00,
2013-04-26 13:10:00,80.0,52.1,30.16,SE,138,5.0,5.0,38,0.00,,,0.00,914,WeatherTracker,2013-04-26 20:10:00,
2013-04-26 13:15:00,80.4,51.0,30.16,SE,141,5.0,5.0,36,0.00,,,0.00,916,WeatherTracker,2013-04-26 20:15:00,
2013-04-26 13:20:00,80.7,51.2,30.16,SE,140,0.0,6.0,36,0.00,,,0.00,912,WeatherTracker,2013-04-26 20:20:00,
2013-04-26 13:25:00,81.1,52.3,30.16,SSE,151,2.0,6.0,37,0.00,,,0.00,909,WeatherTracker,2013-04-26 20:25:00,
2013-04-26 13:30:00,81.5,52.7,30.15,SSE,158,4.0,8.0,37,0.00,,,0.00,909,WeatherTracker,2013-04-26 20:30:00,
2013-04-26 13:35:00,81.8,52.2,30.15,SSE,161,0.0,8.0,36,0.00,,,0.00,912,WeatherTracker,2013-04-26 20:35:00,
2013-04-26 13:40:00,82.1,52.5,30.14,SSE,167,5.0,7.0,36,0.00,,,0.00,909,WeatherTracker,2013-04-26 20:40:00,
2013-04-26 13:45:00,82.2,52.6,30.14,South,170,0.0,6.0,36,0.00,,,0.00,909,WeatherTracker,2013-04-26 20:45:00,
2013-04-26 13:50:00,82.5,52.8,30.14,South,175,6.0,6.0,36,0.00,,,0.00,904,WeatherTracker,2013-04-26 20:50:00,
2013-04-26 13:55:00,82.9,52.4,30.14,South,183,5.0,7.0,35,0.00,,,0.00,900,WeatherTracker,2013-04-26 20:55:00,
2013-04-26 14:00:00,83.2,51.9,30.14,South,190,5.0,7.0,34,0.00,,,0.00,896,WeatherTracker,2013-04-26 21:00:00,
2013-04-26 14:05:00,83.5,51.3,30.14,SSW,198,1.0,7.0,33,0.00,,,0.00,888,WeatherTracker,2013-04-26 21:05:00,
2013-04-26 14:10:00,83.5,52.1,30.14,SSW,198,3.0,7.0,34,0.00,,,0.00,886,WeatherTracker,2013-04-26 21:10:00,
2013-04-26 14:15:00,84.1,51.9,30.14,SSW,199,0.0,6.0,33,0.00,,,0.00,882,WeatherTracker,2013-04-26 21:15:00,
2013-04-26 14:21:00,84.8,52.5,30.14,SW,219,6.0,6.0,33,0.00,,,0.00,877,WeatherTracker,2013-04-26 21:21:00,
2013-04-26 14:26:00,85.1,51.0,30.13,SW,217,2.0,7.0,31,0.00,,,0.00,870,WeatherTracker,2013-04-26 21:26:00,
2013-04-26 14:31:00,85.2,52.0,30.13,SW,217,5.0,7.0,32,0.00,,,0.00,867,WeatherTracker,2013-04-26 21:31:00,
2013-04-26 14:36:00,85.5,51.4,30.13,SW,234,1.0,8.0,31,0.00,,,0.00,858,WeatherTracker,2013-04-26 21:36:00,
2013-04-26 14:41:00,85.5,51.4,30.13,SW,234,0.0,8.0,31,0.00,,,0.00,849,WeatherTracker,2013-04-26 21:41:00,
2013-04-26 14:46:00,85.9,50.8,30.13,SW,223,0.0,8.0,30,0.00,,,0.00,844,WeatherTracker,2013-04-26 21:46:00,
2013-04-26 14:51:00,86.2,52.0,30.12,SW,224,3.0,8.0,31,0.00,,,0.00,833,WeatherTracker,2013-04-26 21:51:00,
2013-04-26 14:56:00,86.6,51.4,30.12,SW,224,0.0,6.0,30,0.00,,,0.00,828,WeatherTracker,2013-04-26 21:56:00,
2013-04-26 15:01:00,86.8,52.5,30.12,SW,223,4.0,6.0,31,0.00,,,0.00,817,WeatherTracker,2013-04-26 22:01:00,
2013-04-26 15:06:00,86.8,51.6,30.12,SSW,202,5.0,6.0,30,0.00,,,0.00,810,WeatherTracker,2013-04-26 22:06:00,
2013-04-26 15:11:00,87.2,52.0,30.12,SSW,199,6.0,6.0,30,0.00,,,0.00,803,WeatherTracker,2013-04-26 22:11:00,
2013-04-26 15:16:00,87.4,51.2,30.12,SSW,200,0.0,6.0,29,0.00,,,0.00,789,WeatherTracker,2013-04-26 22:16:00,
2013-04-26 15:21:00,87.7,51.5,30.12,SSW,200,0.0,6.0,29,0.00,,,0.00,779,WeatherTracker,2013-04-26 22:21:00,
2013-04-26 15:26:00,88.1,51.8,30.11,SSW,203,3.0,3.0,29,0.00,,,0.00,770,WeatherTracker,2013-04-26 22:26:00,
2013-04-26 15:31:00,87.8,51.5,30.11,SSW,213,0.0,5.0,29,0.00,,,0.00,758,WeatherTracker,2013-04-26 22:31:00,
2013-04-26 15:36:00,87.8,51.5,30.11,SSW,213,0.0,5.0,29,0.00,,,0.00,744,WeatherTracker,2013-04-26 22:36:00,
2013-04-26 15:41:00,88.1,51.8,30.11,SSW,204,0.0,6.0,29,0.00,,,0.00,737,WeatherTracker,2013-04-26 22:41:00,
2013-04-26 15:46:00,88.2,51.9,30.11,SSW,204,3.0,6.0,29,0.00,,,0.00,724,WeatherTracker,2013-04-26 22:46:00,
2013-04-26 15:51:00,88.4,52.1,30.10,SSW,202,0.0,5.0,29,0.00,,,0.00,710,WeatherTracker,2013-04-26 22:51:00,
2013-04-26 15:56:00,88.5,51.2,30.10,SW,216,0.0,5.0,28,0.00,,,0.00,700,WeatherTracker,2013-04-26 22:56:00,
2013-04-26 16:01:00,88.6,52.2,30.10,WSW,242,4.0,8.0,29,0.00,,,0.00,687,WeatherTracker,2013-04-26 23:01:00,
2013-04-26 16:07:00,88.4,51.1,30.10,WSW,242,0.0,8.0,28,0.00,,,0.00,670,WeatherTracker,2013-04-26 23:07:00,
2013-04-26 16:12:00,88.2,50.9,30.10,WSW,241,0.0,7.0,28,0.00,,,0.00,656,WeatherTracker,2013-04-26 23:12:00,
2013-04-26 16:17:00,88.5,51.2,30.10,SW,215,5.0,6.0,28,0.00,,,0.00,642,WeatherTracker,2013-04-26 23:17:00,
2013-04-26 16:22:00,88.9,51.5,30.09,South,176,2.0,6.0,28,0.00,,,0.00,629,WeatherTracker,2013-04-26 23:22:00,
2013-04-26 16:27:00,88.7,53.2,30.09,South,177,4.0,10.0,30,0.00,,,0.00,612,WeatherTracker,2013-04-26 23:27:00,
2013-04-26 16:32:00,88.9,53.4,30.09,South,189,4.0,10.0,30,0.00,,,0.00,598,WeatherTracker,2013-04-26 23:32:00,
2013-04-26 16:37:00,89.2,54.6,30.09,South,190,5.0,6.0,31,0.00,,,0.00,580,WeatherTracker,2013-04-26 23:37:00,
2013-04-26 16:42:00,89.5,53.9,30.09,SSE,164,0.0,6.0,30,0.00,,,0.00,566,WeatherTracker,2013-04-26 23:42:00,
2013-04-26 16:47:00,89.3,53.8,30.09,South,179,6.0,9.0,30,0.00,,,0.00,554,WeatherTracker,2013-04-26 23:47:00,
2013-04-26 16:52:00,88.8,53.3,30.09,South,171,0.0,9.0,30,0.00,,,0.00,538,WeatherTracker,2013-04-26 23:52:00,
2013-04-26 17:05:00,89.1,52.7,30.08,South,177,0.0,8.0,29,0.00,,,0.00,497,WeatherTracker,2013-04-27 00:05:00,
2013-04-26 17:10:00,89.0,53.5,30.08,South,175,2.0,8.0,30,0.00,,,0.00,480,WeatherTracker,2013-04-27 00:10:00,
2013-04-26 17:15:00,89.2,53.7,30.08,South,172,5.0,7.0,30,0.00,,,0.00,464,WeatherTracker,2013-04-27 00:15:00,
2013-04-26 17:20:00,89.2,53.7,30.08,South,170,2.0,8.0,30,0.00,,,0.00,446,WeatherTracker,2013-04-27 00:20:00,
2013-04-26 17:25:00,89.3,53.8,30.08,SSE,163,1.0,8.0,30,0.00,,,0.00,429,WeatherTracker,2013-04-27 00:25:00,
2013-04-26 17:30:00,89.4,52.9,30.08,SSE,153,0.0,8.0,29,0.00,,,0.00,413,WeatherTracker,2013-04-27 00:30:00,
2013-04-26 17:35:00,89.3,54.7,30.07,SE,145,4.0,8.0,31,0.00,,,0.00,396,WeatherTracker,2013-04-27 00:35:00,
2013-04-26 17:41:00,89.5,53.9,30.07,SE,144,0.0,8.0,30,0.00,,,0.00,381,WeatherTracker,2013-04-27 00:41:00,
2013-04-26 17:46:00,89.5,54.8,30.08,SE,140,6.0,9.0,31,0.00,,,0.00,364,WeatherTracker,2013-04-27 00:46:00,
2013-04-26 17:51:00,88.9,55.2,30.07,SE,132,0.0,9.0,32,0.00,,,0.00,346,WeatherTracker,2013-04-27 00:51:00,
2013-04-26 17:56:00,88.7,55.9,30.08,SE,143,9.0,9.0,33,0.00,,,0.00,329,WeatherTracker,2013-04-27 00:56:00,
2013-04-26 18:01:00,88.5,54.8,30.08,South,174,7.0,10.0,32,0.00,,,0.00,311,WeatherTracker,2013-04-27 01:01:00,
2013-04-26 18:06:00,87.8,54.2,30.08,SE,140,5.0,12.0,32,0.00,,,0.00,294,WeatherTracker,2013-04-27 01:06:00,
2013-04-26 18:11:00,87.2,54.6,30.08,SSE,157,5.0,12.0,33,0.00,,,0.00,276,WeatherTracker,2013-04-27 01:11:00,
2013-04-26 18:16:00,86.8,55.0,30.08,SE,134,8.0,10.0,34,0.00,,,0.00,260,WeatherTracker,2013-04-27 01:16:00,
2013-04-26 18:21:00,86.5,55.6,30.08,SE,141,6.0,11.0,35,0.00,,,0.00,241,WeatherTracker,2013-04-27 01:21:00,
2013-04-26 18:26:00,86.2,55.3,30.07,SE,130,5.0,11.0,35,0.00,,,0.00,225,WeatherTracker,2013-04-27 01:26:00,
2013-04-26 18:31:00,85.9,55.8,30.08,SE,132,7.0,9.0,36,0.00,,,0.00,202,WeatherTracker,2013-04-27 01:31:00,
2013-04-26 18:36:00,85.4,56.1,30.08,SE,136,7.0,11.0,37,0.00,,,0.00,186,WeatherTracker,2013-04-27 01:36:00,
2013-04-26 18:41:00,84.7,56.2,30.08,ESE,117,7.0,12.0,38,0.00,,,0.00,167,WeatherTracker,2013-04-27 01:41:00,
2013-04-26 18:46:00,83.8,56.2,30.08,SE,140,4.0,13.0,39,0.00,,,0.00,146,WeatherTracker,2013-04-27 01:46:00,
2013-04-26 18:51:00,83.0,56.2,30.08,SE,130,6.0,13.0,40,0.00,,,0.00,128,WeatherTracker,2013-04-27 01:51:00,
2013-04-26 18:56:00,82.5,56.4,30.08,SE,127,4.0,11.0,41,0.00,,,0.00,109,WeatherTracker,2013-04-27 01:56:00,
2013-04-26 19:01:00,81.9,55.9,30.08,SE,126,7.0,11.0,41,0.00,,,0.00,90,WeatherTracker,2013-04-27 02:01:00,
2013-04-26 19:06:00,81.3,56.6,30.08,ESE,123,4.0,11.0,43,0.00,,,0.00,49,WeatherTracker,2013-04-27 02:06:00,
2013-04-26 19:11:00,80.6,56.0,30.08,ESE,121,8.0,12.0,43,0.00,,,0.00,40,WeatherTracker,2013-04-27 02:11:00,
2013-04-26 19:16:00,79.7,55.8,30.08,SE,125,7.0,12.0,44,0.00,,,0.00,35,WeatherTracker,2013-04-27 02:16:00,
2013-04-26 19:21:00,78.9,56.3,30.08,ESE,115,8.0,12.0,46,0.00,,,0.00,32,WeatherTracker,2013-04-27 02:21:00,
2013-04-26 19:26:00,78.3,55.8,30.08,ESE,121,6.0,12.0,46,0.00,,,0.00,26,WeatherTracker,2013-04-27 02:26:00,
2013-04-26 19:31:00,77.8,55.9,30.08,SE,135,6.0,11.0,47,0.00,,,0.00,23,WeatherTracker,2013-04-27 02:31:00,
2013-04-26 19:36:00,77.2,56.0,30.08,ESE,121,0.0,13.0,48,0.00,,,0.00,19,WeatherTracker,2013-04-27 02:36:00,
2013-04-26 19:41:00,76.7,55.5,30.08,ESE,123,4.0,13.0,48,0.00,,,0.00,14,WeatherTracker,2013-04-27 02:41:00,
2013-04-26 19:47:00,76.2,55.1,30.08,ESE,120,4.0,9.0,48,0.00,,,0.00,11,WeatherTracker,2013-04-27 02:47:00,
2013-04-26 19:52:00,75.7,54.6,30.08,ESE,113,4.0,8.0,48,0.00,,,0.00,7,WeatherTracker,2013-04-27 02:52:00,
2013-04-26 19:57:00,75.2,54.7,30.08,ESE,110,5.0,8.0,49,0.00,,,0.00,5,WeatherTracker,2013-04-27 02:57:00,
2013-04-26 20:02:00,74.6,54.2,30.08,ESE,117,7.0,9.0,49,0.00,,,0.00,0,WeatherTracker,2013-04-27 03:02:00,
2013-04-26 20:07:00,74.2,53.8,30.08,ESE,120,0.0,9.0,49,0.00,,,0.00,0,WeatherTracker,2013-04-27 03:07:00,
2013-04-26 20:12:00,73.6,54.3,30.09,ESE,122,6.0,9.0,51,0.00,,,0.00,0,WeatherTracker,2013-04-27 03:12:00,
2013-04-26 20:17:00,73.2,54.0,30.09,ESE,122,2.0,7.0,51,0.00,,,0.00,0,WeatherTracker,2013-04-27 03:17:00,
2013-04-26 20:22:00,72.7,53.5,30.09,ESE,122,1.0,7.0,51,0.00,,,0.00,0,WeatherTracker,2013-04-27 03:22:00,
2013-04-26 20:27:00,72.3,53.7,30.09,ESE,122,0.0,6.0,52,0.00,,,0.00,0,WeatherTracker,2013-04-27 03:27:00,
2013-04-26 20:32:00,71.8,53.2,30.09,ESE,122,0.0,4.0,52,0.00,,,0.00,0,WeatherTracker,2013-04-27 03:32:00,
2013-04-26 20:37:00,71.4,53.4,30.09,ESE,122,0.0,0.0,53,0.00,,,0.00,0,WeatherTracker,2013-04-27 03:37:00,
2013-04-26 20:42:00,71.0,53.0,30.10,ESE,122,0.0,0.0,53,0.00,,,0.00,0,WeatherTracker,2013-04-27 03:42:00,
2013-04-26 20:47:00,70.6,52.6,30.10,ESE,122,0.0,0.0,53,0.00,,,0.00,0,WeatherTracker,2013-04-27 03:47:00,
2013-04-26 20:52:00,70.3,52.3,30.10,ESE,122,0.0,0.0,53,0.00,,,0.00,0,WeatherTracker,2013-04-27 03:52:00,
2013-04-26 20:57:00,69.9,52.5,30.10,ESE,122,0.0,0.0,54,0.00,,,0.00,0,WeatherTracker,2013-04-27 03:57:00,
2013-04-26 21:01:00,69.7,52.3,30.10,ESE,122,0.0,0.0,54,0.00,,,0.00,0,WeatherTracker,2013-04-27 04:01:00,
2013-04-26 21:02:00,69.6,52.2,30.10,ESE,122,0.0,0.0,54,0.00,,,0.00,0,WeatherTracker,2013-04-27 04:02:00,
2013-04-26 21:03:00,69.6,52.2,30.10,ESE,122,0.0,0.0,54,0.00,,,0.00,0,WeatherTracker,2013-04-27 04:03:00,
2013-04-26 21:08:00,69.4,52.5,30.10,ESE,122,0.0,0.0,55,0.00,,,0.00,0,WeatherTracker,2013-04-27 04:08:00,
2013-04-26 21:13:00,69.1,52.2,30.10,ESE,122,0.0,0.0,55,0.00,,,0.00,0,WeatherTracker,2013-04-27 04:13:00,
2013-04-26 21:18:00,68.7,51.9,30.10,ESE,122,0.0,0.0,55,0.00,,,0.00,0,WeatherTracker,2013-04-27 04:18:00,
2013-04-26 21:23:00,68.3,52.0,30.11,ESE,122,0.0,0.0,56,0.00,,,0.00,0,WeatherTracker,2013-04-27 04:23:00,
2013-04-26 21:28:00,68.0,51.7,30.11,ESE,122,0.0,0.0,56,0.00,,,0.00,0,WeatherTracker,2013-04-27 04:28:00,
2013-04-26 21:33:00,67.7,51.9,30.11,ESE,122,0.0,0.0,57,0.00,,,0.00,0,WeatherTracker,2013-04-27 04:33:00,
2013-04-26 21:38:00,67.4,51.6,30.11,ESE,122,0.0,0.0,57,0.00,,,0.00,0,WeatherTracker,2013-04-27 04:38:00,
2013-04-26 21:43:00,67.0,51.3,30.11,ESE,122,0.0,1.0,57,0.00,,,0.00,0,WeatherTracker,2013-04-27 04:43:00,
2013-04-26 21:48:00,66.7,51.4,30.11,ESE,122,0.0,1.0,58,0.00,,,0.00,0,WeatherTracker,2013-04-27 04:48:00,
2013-04-26 21:53:00,66.3,51.1,30.11,ESE,122,0.0,0.0,58,0.00,,,0.00,0,WeatherTracker,2013-04-27 04:53:00,
2013-04-26 21:58:00,65.9,51.2,30.11,ESE,122,0.0,0.0,59,0.00,,,0.00,0,WeatherTracker,2013-04-27 04:58:00,
2013-04-26 22:03:00,65.5,50.8,30.11,ESE,122,0.0,0.0,59,0.00,,,0.00,0,WeatherTracker,2013-04-27 05:03:00,
2013-04-26 22:08:00,65.2,50.5,30.11,ESE,122,0.0,0.0,59,0.00,,,0.00,0,WeatherTracker,2013-04-27 05:08:00,
2013-04-26 22:13:00,64.9,50.2,30.11,ESE,122,0.0,0.0,59,0.00,,,0.00,0,WeatherTracker,2013-04-27 05:13:00,
2013-04-26 22:18:00,64.5,49.8,30.12,ESE,122,0.0,0.0,59,0.00,,,0.00,0,WeatherTracker,2013-04-27 05:18:00,
2013-04-26 22:23:00,64.2,49.6,30.12,ESE,122,5.0,0.0,59,0.00,,,0.00,0,WeatherTracker,2013-04-27 05:23:00,
2013-04-26 22:28:00,63.8,49.2,30.12,ESE,121,1.0,5.0,59,0.00,,,0.00,0,WeatherTracker,2013-04-27 05:28:00,
2013-04-26 22:33:00,63.5,49.4,30.12,ESE,121,2.0,5.0,60,0.00,,,0.00,0,WeatherTracker,2013-04-27 05:33:00,
2013-04-26 22:39:00,63.2,49.1,30.12,ESE,121,2.0,5.0,60,0.00,,,0.00,0,WeatherTracker,2013-04-27 05:39:00,
2013-04-26 22:44:00,62.7,49.1,30.12,ESE,119,2.0,5.0,61,0.00,,,0.00,0,WeatherTracker,2013-04-27 05:44:00,
2013-04-26 22:49:00,62.4,48.8,30.12,ESE,119,4.0,5.0,61,0.00,,,0.00,0,WeatherTracker,2013-04-27 05:49:00,
2013-04-26 22:54:00,62.0,48.4,30.12,ESE,119,2.0,6.0,61,0.00,,,0.00,0,WeatherTracker,2013-04-27 05:54:00,
2013-04-26 22:59:00,61.6,48.5,30.12,ESE,117,2.0,6.0,62,0.00,,,0.00,0,WeatherTracker,2013-04-27 05:59:00,
2013-04-26 23:04:00,61.2,48.1,30.12,ESE,112,2.0,6.0,62,0.00,,,0.00,0,WeatherTracker,2013-04-27 06:04:00,
2013-04-26 23:09:00,60.8,47.7,30.12,ESE,112,4.0,6.0,62,0.00,,,0.00,0,WeatherTracker,2013-04-27 06:09:00,
2013-04-26 23:14:00,60.4,47.7,30.12,ESE,112,0.0,6.0,63,0.00,,,0.00,0,WeatherTracker,2013-04-27 06:14:00,
2013-04-26 23:19:00,60.2,47.6,30.12,ESE,112,4.0,6.0,63,0.00,,,0.00,0,WeatherTracker,2013-04-27 06:19:00,
2013-04-26 23:24:00,60.0,47.8,30.12,ESE,112,0.0,5.0,64,0.00,,,0.00,0,WeatherTracker,2013-04-27 06:24:00,
2013-04-26 23:29:00,59.8,47.6,30.12,ESE,111,0.0,4.0,64,0.00,,,0.00,0,WeatherTracker,2013-04-27 06:29:00,
2013-04-26 23:34:00,59.7,47.5,30.12,ESE,111,0.0,4.0,64,0.00,,,0.00,0,WeatherTracker,2013-04-27 06:34:00,
2013-04-26 23:39:00,59.6,47.4,30.12,ESE,111,0.0,0.0,64,0.00,,,0.00,0,WeatherTracker,2013-04-27 06:39:00,
2013-04-26 23:44:00,59.3,47.1,30.13,ESE,105,4.0,0.0,64,0.00,,,0.00,0,WeatherTracker,2013-04-27 06:44:00,
2013-04-26 23:49:00,58.9,46.7,30.12,East,95,2.0,6.0,64,0.00,,,0.00,0,WeatherTracker,2013-04-27 06:49:00,
2013-04-26 23:54:00,58.3,46.6,30.13,East,94,2.0,7.0,65,0.00,,,0.00,0,WeatherTracker,2013-04-27 06:54:00,
2013-04-26 23:59:00,58.1,46.8,30.13,East,93,0.0,7.0,66,0.00,,,0.00,0,WeatherTracker,2013-04-27 06:59:00,